Regional Weather Roundup
Issued by NWS Grand Forks, ND

Home | Current Version | Previous Version | Graphics & Text | Print | Product List | Glossary On
Versions: 1 2 3 4 5 6 7 8 9 10 11 12 13 14 15 16 17 18 19 20 21 22 23 24 25 26 27 28 29 30 31 32 33 34 35 36 37 38 39 40 41 42 43 44 45 46 47 48 49 50
000
ASUS43 KFGF 020631
RWRFGF
PRAIRIE TO PINES  WEATHER ROUNDUP
NATIONAL WEATHER SERVICE EASTERN NORTH DAKOTA/GRAND FORKS ND
100 AM CDT THU JUL 02 2015

 **SATELLITE DATA USED TO AUGMENT SKY COVER AT AUTOMATED STATIONS**
 *****  WEATHER ACROSS EASTERN NORTH DAKOTA  *****

CITY           SKY/WX    TMP DP  RH WIND       PRES   REMARKS
GRAND FORKS    CLEAR     63  59  87 S6        29.94S
6HR MIN TEMP:  63; 6HR MAX TEMP:  77;

GRAND FRKS AFB CLEAR     64  59  85 SW7       29.95S
GRAND FRKS NWS   N/A     63 N/A N/A S7          N/A
DEVILS LAKE    CLOUDY    70  61  73 S7        29.94S
6HR MIN TEMP:  68; 6HR MAX TEMP:  75;

FARGO          CLEAR     63  56  78 S7        29.98R
WAHPETON ARPT  NOT AVBL
$$

 ***** WEATHER ACROSS CENTRAL AND WESTERN NORTH DAKOTA  *****

CITY           SKY/WX    TMP DP  RH WIND       PRES   REMARKS
BISMARCK       CLOUDY    67  65  93 CALM      29.96S
6HR MIN TEMP:  66; 6HR MAX TEMP:  77; 6HR PCP: TRACE;

MINOT          CLOUDY    67  63  87 CALM      29.95F FOG
6HR MIN TEMP:  66; 6HR MAX TEMP:  73;

JAMESTOWN      PTCLDY    64  61  90 S5        29.96F
6HR MIN TEMP:  64; 6HR MAX TEMP:  75;

MINOT AFB      CLOUDY    63  63 100 SW2       29.94F FOG
GARRISON         N/A     69  64  84 NE6       29.96S
WILLISTON      MOCLDY    64  60  87 NW3       29.99F
6HR MIN TEMP:  64; 6HR MAX TEMP:  76; 6HR PCP:  0.04;

DICKINSON      PTCLDY    62  60  93 W6        29.99S FOG
6HR MIN TEMP:  62; 6HR MAX TEMP:  74; 6HR PCP:  0.02;

HETTINGER      LGT RAIN  65  61  87 E8        29.99F
6HR MIN TEMP:  63; 6HR MAX TEMP:  76; 6HR PCP: TRACE;

$$

 *****  OTHER AIRPORT OBSERVATIONS IN OUR AREA  *****

CITY           SKY/WX    TMP DP  RH WIND       PRES   REMARKS
WALHALLA       FAIR      63  63 100 MISG      29.94S
GRAFTON AIRPOR FAIR      61  61 100 S7        29.95S FOG
VALLEY CITY AR MOCLDY    63  63 100 S8        29.97F
CANDO          FAIR      64  63  94 S3        29.95S
CAVALIER APRT  FAIR      63  61  94 S3        29.94S
GWINNER          N/A    N/A N/A N/A E5        29.98S
SHEYENNE NWR     N/A     60  57  89 SE5       29.95S
ROLLA          CLOUDY    63  63 100 NW3       29.97S
 ***** THE ABOVE OBSERVATIONS ARE NON NWS ARE NOT QUALITY
       CONTROLLED AND MAY MIS-REPORT RAIN FOR SNOW...
$$

  *****  WEATHER ACROSS NORTHERN MINNESOTA  *****

CITY           SKY/WX    TMP DP  RH WIND       PRES   REMARKS
FLAG ISLAND    NOT AVBL
WARROAD        NOT AVBL
ROSEAU         NOT AVBL
HALLOCK        CLEAR     61  57  88 S6        29.94R
THF RVR FALLS  CLEAR     63  57  82 S5        29.98S
6HR MIN TEMP:  63; 6HR MAX TEMP:  75;

BAUDETTE       CLEAR     59  56  89 CALM      29.95F
6HR MIN TEMP:  59; 6HR MAX TEMP:  77;

WASKISH        CLEAR     59  57  94 SW3       29.97S FOG
CROOKSTON      CLEAR     61  55  82 S7        29.98S
$$
  *****  WEATHER ACROSS CENTRAL AND WEST MINNESOTA  *****

CITY           SKY/WX    TMP DP  RH WIND       PRES   REMARKS
FOSSTON        CLEAR     55  54  94 CALM      30.00F
BEMIDJI        NOT AVBL
PARK RAPIDS    CLOUDY    64  55  72 S5        30.01R
6HR MIN TEMP:  63; 6HR MAX TEMP:  75;

ELBOW LAKE     NOT AVBL
WADENA           N/A     57  54  88 CALM      30.01S
DETROIT LAKES  CLEAR     63  55  77 SW7       30.02S
MOORHEAD       NOT AVBL
FERGUS FALLS   NOT AVBL
MORRIS MN      NOT AVBL
STAPLES        NOT AVBL
$$
  *****  WEATHER ELSEWHERE ACROSS MINNESOTA  *****

CITY           SKY/WX    TMP DP  RH WIND       PRES   REMARKS
DULUTH         CLEAR     56  50  80 CALM      30.01F
6HR MIN TEMP:  56; 6HR MAX TEMP:  68;

INTRNTL FALLS  CLEAR     55  53  93 CALM      29.96S
6HR MIN TEMP:  52; 6HR MAX TEMP:  76;

ELY            NOT AVBL
CLOQUET        CLEAR     54  52  94 CALM      30.01F
WHEATON        CLEAR     54  52  94 SE7       30.02S
BRAINERD       MOCLDY    59  55  87 S3        30.01F
6HR MIN TEMP:  59; 6HR MAX TEMP:  74;

HIBBING        MOCLDY    55  54  96 CALM      30.00S
6HR MIN TEMP:  55; 6HR MAX TEMP:  73;

ALEXANDRIA     CLEAR     59  54  83 CALM      30.03S
6HR MIN TEMP:  59; 6HR MAX TEMP:  71;

SAINT CLOUD    CLEAR     53  52  96 CALM      30.01S
6HR MIN TEMP:  53; 6HR MAX TEMP:  74;

MINNEAPOLIS    CLEAR     62  53  72 CALM      30.00F
6HR MIN TEMP:  62; 6HR MAX TEMP:  72;

$$

  *****  WEATHER ACROSS SOUTH DAKOTA  *****

CITY           SKY/WX    TMP DP  RH WIND       PRES   REMARKS
SIOUX FALLS    CLEAR     61  56  83 E7        29.99S
6HR MIN TEMP:  61; 6HR MAX TEMP:  73;

BROOKINGS      CLEAR     61  54  77 E8        30.01F
WATERTOWN      CLOUDY    61  53  75 SE6       29.99F
6HR MIN TEMP:  61; 6HR MAX TEMP:  70;

HURON          PTCLDY    63  59  87 SE10      29.95F
6HR MIN TEMP:  63; 6HR MAX TEMP:  74; 6HR PCP:  0.20;

SISSETON         N/A     58  55  90 SE3       29.98F
ABERDEEN       PTCLDY    63  58  83 SE7       29.97F
6HR MIN TEMP:  63; 6HR MAX TEMP:  77;

MITCHELL       PTCLDY    65  62  90 E8        29.97S
PIERRE         CLOUDY    68  66  93 E7        29.92F
6HR MIN TEMP:  67; 6HR MAX TEMP:  81;

MOBRIDGE       CLOUDY    70  68  93 E7        29.94S
RAPID CITY     CLOUDY    65  62  90 W7        30.05F
6HR MIN TEMP:  64; 6HR MAX TEMP:  75; 6HR PCP:  0.48;

$$

  *****  SOME WEATHER IN NEARBY STATES *****

CITY           SKY/WX    TMP DP  RH WIND       PRES   REMARKS
GLASGOW MT     CLEAR     59  51  75 MISG      30.05S
6HR MIN TEMP:  59; 6HR MAX TEMP:  82;

GREAT FALLS MT PTCLDY    67  51  56 N9        30.18R
6HR MIN TEMP:  67; 6HR MAX TEMP:  81;

CHEYENNE WY    CLEAR     59  52  77 W10       30.14F
6HR MIN TEMP:  59; 6HR MAX TEMP:  74; 6HR PCP:  0.31;

SCOTTSBLUFF NE MOCLDY    67  59  75 SE8       30.01F
6HR MIN TEMP:  67; 6HR MAX TEMP:  89; 6HR PCP:  0.10;

OMAHA NE       CLOUDY    70  62  76 VRB7      29.93R
6HR MIN TEMP:  70; 6HR MAX TEMP:  80;

DES MOINES IA  CLEAR     63  56  78 E10       29.95S
6HR MIN TEMP:  63; 6HR MAX TEMP:  73;

DAVENPORT IA   CLOUDY    62  55  77 E9        29.98S
6HR MIN TEMP:  62; 6HR MAX TEMP:  68;

CHICAGO IL     PTCLDY    54  50  86 N7        29.99F
6HR MIN TEMP:  54; 6HR MAX TEMP:  59;

EAU CLAIRE WI  CLEAR     53  50  89 NE3       29.99F
6HR MIN TEMP:  52; 6HR MAX TEMP:  72;

LA CROSSE WI   CLEAR     56  53  90 SE3       29.99F
6HR MIN TEMP:  56; 6HR MAX TEMP:  69;

$$

  *****  SOME NATIONAL WEATHER *****

CITY           SKY/WX    TMP DP  RH WIND       PRES   REMARKS
LA GUARDIA NY  PTCLDY    74  60  61 NW9       29.87S
6HR MIN TEMP:  74; 6HR MAX TEMP:  82;

RALEIGH NC     CLOUDY    77  70  79 SW8       29.93F
6HR MIN TEMP:  76; 6HR MAX TEMP:  82; 6HR PCP: TRACE;

ATLANTA GA     CLOUDY    70  66  87 SW5       30.05F
6HR MIN TEMP:  69; 6HR MAX TEMP:  71; 6HR PCP:  0.06;

NEW ORLEANS LA CLOUDY    77  72  84 SW6       30.08F
6HR MIN TEMP:  76; 6HR MAX TEMP:  78; 6HR PCP:  0.14;

OKLAHOMA CITY  MOCLDY    81  67  62 S14       29.87F
6HR MIN TEMP:  80; 6HR MAX TEMP:  91;

ALBUQUERQUE NM CLOUDY    79  51  37 N10       30.14S
6HR MIN TEMP:  78; 6HR MAX TEMP:  95; 6HR PCP: TRACE;

SALT LAKE CITY CLOUDY    83  55  38 S5        30.02R
6HR MIN TEMP:  82; 6HR MAX TEMP:  97;

LOS ANGELES CA CLOUDY    66  63  90 SW5       29.96R
6HR MIN TEMP:  66; 6HR MAX TEMP:  72;

BOISE ID       PTCLDY    82  37  20 SW7       29.93R


USA.gov is the U.S. government's official web portal to all federal, state and local government web resources and services.